Tracking 19847 objects as of 17-Sep-2019
HD Live streaming from Space Station
objects crossing your sky now

SOICAL (CONE)

Track SOICAL (CONE) now!
10-day predictions
SOICAL (CONE) is classified as:


NORAD ID: 4132
Int'l Code: 1969-082K
Perigee: 808.6 km
Apogee: 825.3 km
Inclination: 70.0 °
Period: 101.1 minutes
Semi major axis: 7187 km
RCS: 0.2856 m2 (medium)
Launch date: September 30, 1969
Source: United States (US)
Launch site: AIR FORCE WESTERN TEST RANGE (AFWTR)
aabbcc
Your satellite tracking list
Your tracking list is empty




NASA's NSSDC Master Catalog

Two Line Element Set (TLE):
1  4132U 69082K   19260.51001159  .00000192  00000-0  10708-3 0  9996
2  4132  69.9959  59.0177 0011603 275.8143  84.1655 14.24611818569778
Source of the keplerian elements: AFSPC